Precipitable_Water
0.48 0.47 0.46 0.44 0.43 0.42 0.42 0.41 0.39 0.37 0.37 0.36 0.35 0.34 0.30 0.27 0.27 0.27 0.26 0.26 0.24 0.23 0.24 0.25 0.26 0.26 0.26 0.26 0.26 0.23 0.21 0.15 0.14 0.13 0.13 0.15 0.20 0.24 0.25 0.28 0.28 0.30 0.29 0.22 0.18 0.17 0.14 0.14 0.14 0.16 0.16 0.16 0.14 0.14 0.17 0.15 0.15 0.14 0.10 0.08 0.07 0.08 0.07 0.09 0.08 0.09 0.09 0.08 0.10 0.12 0.13 0.12 0.10 0.12 0.13 0.15 0.14 0.14 0.14 0.14 0.15 0.16 0.15 0.15 0.15 0.16 0.16 0.17
0.49 0.49 0.48 0.45 0.44 0.42 0.42 0.41 0.39 0.38 0.37 0.36 0.35 0.34 0.32 0.27 0.28 0.27 0.26 0.25 0.23 0.23 0.24 0.25 0.27 0.26 0.26 0.25 0.26 0.23 0.20 0.14 0.13 0.13 0.14 0.19 0.22 0.23 0.24 0.25 0.28 0.29 0.28 0.19 0.16 0.15 0.13 0.12 0.13 0.14 0.13 0.11 0.14 0.11 0.14 0.10 0.14 0.11 0.09 0.08 0.06 0.08 0.09 0.11 0.10 0.10 0.09 0.09 0.11 0.12 0.13 0.13 0.12 0.12 0.14 0.12 0.12 0.13 0.12 0.13 0.14 0.14 0.15 0.16 0.16 0.16 0.16 0.18
0.48 0.48 0.49 0.48 0.44 0.41 0.41 0.40 0.39 0.38 0.37 0.38 0.37 0.36 0.33 0.29 0.28 0.28 0.26 0.25 0.23 0.24 0.23 0.24 0.24 0.25 0.24 0.25 0.26 0.25 0.21 0.14 0.13 0.12 0.15 0.20 0.21 0.23 0.25 0.25 0.28 0.26 0.24 0.18 0.17 0.15 0.13 0.12 0.13 0.12 0.11 0.10 0.12 0.10 0.12 0.10 0.12 0.10 0.09 0.07 0.08 0.10 0.10 0.11 0.12 0.10 0.11 0.11 0.11 0.12 0.13 0.13 0.13 0.13 0.15 0.12 0.12 0.13 0.12 0.12 0.13 0.13 0.12 0.14 0.15 0.16 0.16 0.18
0.49 0.46 0.48 0.50 0.49 0.46 0.41 0.39 0.37 0.37 0.39 0.40 0.39 0.36 0.34 0.30 0.29 0.28 0.27 0.25 0.23 0.24 0.23 0.23 0.24 0.24 0.24 0.22 0.27 0.25 0.20 0.14 0.11 0.14 0.18 0.20 0.22 0.23 0.24 0.26 0.27 0.24 0.21 0.19 0.18 0.16 0.15 0.14 0.12 0.12 0.11 0.10 0.11 0.12 0.10 0.11 0.11 0.10 0.10 0.08 0.09 0.11 0.10 0.11 0.12 0.12 0.12 0.13 0.12 0.13 0.13 0.13 0.14 0.15 0.14 0.13 0.12 0.12 0.12 0.14 0.13 0.13 0.13 0.13 0.15 0.15 0.16 0.17
0.50 0.47 0.44 0.49 0.52 0.48 0.43 0.39 0.38 0.39 0.41 0.41 0.39 0.36 0.34 0.30 0.30 0.28 0.27 0.25 0.24 0.24 0.25 0.24 0.25 0.26 0.25 0.24 0.25 0.23 0.16 0.09 0.11 0.17 0.19 0.21 0.22 0.23 0.23 0.24 0.26 0.22 0.21 0.19 0.18 0.17 0.16 0.14 0.12 0.11 0.11 0.09 0.11 0.11 0.10 0.12 0.12 0.11 0.10 0.10 0.11 0.11 0.10 0.12 0.12 0.13 0.13 0.14 0.13 0.13 0.12 0.13 0.16 0.16 0.14 0.14 0.12 0.11 0.13 0.15 0.16 0.15 0.15 0.15 0.15 0.15 0.16 0.17
0.52 0.51 0.48 0.47 0.48 0.46 0.42 0.39 0.39 0.40 0.42 0.41 0.38 0.36 0.32 0.30 0.30 0.28 0.27 0.25 0.23 0.24 0.25 0.25 0.24 0.26 0.25 0.23 0.24 0.21 0.16 0.12 0.15 0.16 0.21 0.21 0.21 0.22 0.22 0.22 0.24 0.23 0.21 0.18 0.16 0.15 0.13 0.12 0.12 0.11 0.10 0.10 0.10 0.09 0.11 0.12 0.13 0.09 0.11 0.11 0.12 0.12 0.11 0.13 0.13 0.13 0.14 0.13 0.13 0.13 0.14 0.15 0.14 0.14 0.15 0.15 0.14 0.14 0.16 0.17 0.17 0.17 0.17 0.16 0.16 0.16 0.16 0.17
0.53 0.53 0.51 0.48 0.48 0.46 0.43 0.41 0.38 0.39 0.41 0.39 0.39 0.36 0.31 0.29 0.28 0.27 0.26 0.25 0.24 0.24 0.24 0.24 0.25 0.27 0.25 0.22 0.21 0.19 0.14 0.13 0.17 0.19 0.21 0.22 0.21 0.21 0.21 0.21 0.22 0.21 0.20 0.17 0.15 0.13 0.13 0.12 0.12 0.11 0.11 0.11 0.11 0.11 0.12 0.11 0.13 0.12 0.10 0.11 0.11 0.13 0.12 0.14 0.14 0.15 0.15 0.14 0.14 0.15 0.17 0.14 0.15 0.13 0.16 0.15 0.16 0.17 0.18 0.18 0.18 0.18 0.18 0.18 0.16 0.16 0.16 0.17
0.53 0.53 0.52 0.49 0.48 0.48 0.45 0.41 0.39 0.37 0.39 0.39 0.38 0.36 0.31 0.28 0.28 0.27 0.25 0.23 0.23 0.23 0.24 0.24 0.25 0.24 0.24 0.19 0.15 0.12 0.12 0.12 0.17 0.21 0.21 0.21 0.21 0.20 0.20 0.21 0.20 0.19 0.17 0.15 0.15 0.14 0.13 0.12 0.11 0.13 0.11 0.11 0.11 0.11 0.13 0.12 0.12 0.11 0.11 0.12 0.12 0.13 0.14 0.15 0.15 0.15 0.15 0.15 0.16 0.16 0.14 0.14 0.15 0.15 0.16 0.15 0.16 0.17 0.17 0.18 0.18 0.18 0.18 0.18 0.17 0.17 0.17 0.18
0.53 0.54 0.52 0.49 0.49 0.50 0.43 0.39 0.39 0.38 0.38 0.40 0.38 0.34 0.30 0.28 0.28 0.27 0.25 0.24 0.24 0.25 0.25 0.23 0.22 0.21 0.21 0.18 0.13 0.11 0.11 0.17 0.20 0.21 0.21 0.20 0.20 0.20 0.20 0.17 0.19 0.17 0.17 0.17 0.17 0.15 0.14 0.13 0.14 0.14 0.10 0.11 0.13 0.12 0.13 0.12 0.11 0.13 0.12 0.13 0.13 0.13 0.14 0.15 0.15 0.15 0.16 0.16 0.17 0.15 0.14 0.16 0.16 0.17 0.15 0.15 0.16 0.17 0.17 0.17 0.17 0.18 0.17 0.17 0.17 0.17 0.17 0.18
0.54 0.54 0.52 0.49 0.49 0.46 0.43 0.41 0.39 0.38 0.39 0.42 0.40 0.33 0.29 0.27 0.27 0.27 0.26 0.25 0.25 0.26 0.24 0.22 0.25 0.21 0.18 0.15 0.13 0.10 0.14 0.21 0.22 0.22 0.22 0.20 0.20 0.20 0.19 0.19 0.19 0.18 0.16 0.16 0.16 0.16 0.14 0.14 0.13 0.15 0.14 0.13 0.15 0.13 0.14 0.13 0.12 0.14 0.14 0.14 0.13 0.14 0.14 0.15 0.15 0.15 0.16 0.16 0.17 0.15 0.15 0.15 0.17 0.16 0.13 0.16 0.16 0.17 0.17 0.17 0.18 0.17 0.17 0.17 0.18 0.18 0.18 0.19
0.60 0.55 0.52 0.48 0.46 0.44 0.42 0.42 0.40 0.39 0.39 0.42 0.40 0.31 0.27 0.26 0.26 0.26 0.25 0.24 0.25 0.25 0.23 0.21 0.21 0.21 0.15 0.15 0.11 0.10 0.20 0.20 0.22 0.23 0.22 0.21 0.19 0.18 0.19 0.20 0.20 0.18 0.17 0.17 0.16 0.18 0.17 0.16 0.17 0.17 0.17 0.14 0.15 0.13 0.14 0.14 0.15 0.14 0.14 0.14 0.14 0.15 0.15 0.15 0.16 0.16 0.16 0.15 0.17 0.17 0.15 0.16 0.17 0.16 0.14 0.15 0.17 0.17 0.16 0.16 0.17 0.17 0.17 0.17 0.18 0.18 0.19 0.20
0.69 0.56 0.51 0.45 0.44 0.41 0.41 0.41 0.42 0.40 0.38 0.41 0.37 0.30 0.28 0.26 0.26 0.26 0.25 0.24 0.25 0.23 0.21 0.21 0.21 0.18 0.16 0.14 0.13 0.13 0.21 0.21 0.23 0.23 0.23 0.22 0.20 0.20 0.20 0.21 0.21 0.20 0.19 0.16 0.18 0.20 0.20 0.19 0.20 0.17 0.13 0.18 0.13 0.14 0.14 0.16 0.15 0.15 0.15 0.13 0.13 0.14 0.14 0.15 0.15 0.16 0.17 0.15 0.18 0.18 0.15 0.14 0.15 0.13 0.16 0.17 0.17 0.17 0.16 0.16 0.17 0.17 0.17 0.18 0.18 0.19 0.19 0.20
0.63 0.58 0.50 0.44 0.39 0.41 0.43 0.43 0.44 0.43 0.42 0.39 0.34 0.29 0.27 0.26 0.26 0.26 0.26 0.24 0.26 0.22 0.22 0.21 0.20 0.20 0.16 0.12 0.15 0.20 0.22 0.23 0.22 0.23 0.24 0.25 0.23 0.22 0.22 0.22 0.21 0.22 0.21 0.19 0.19 0.21 0.22 0.21 0.20 0.16 0.19 0.17 0.15 0.13 0.16 0.18 0.16 0.16 0.15 0.14 0.13 0.13 0.13 0.15 0.16 0.16 0.16 0.17 0.18 0.18 0.10 0.11 0.13 0.15 0.16 0.18 0.17 0.17 0.16 0.16 0.17 0.17 0.18 0.18 0.19 0.19 0.19 0.20
0.62 0.58 0.49 0.42 0.41 0.42 0.43 0.44 0.44 0.45 0.44 0.38 0.31 0.28 0.27 0.25 0.25 0.25 0.25 0.25 0.26 0.24 0.23 0.21 0.20 0.18 0.15 0.13 0.17 0.20 0.22 0.24 0.23 0.22 0.22 0.25 0.22 0.22 0.23 0.22 0.22 0.22 0.23 0.21 0.21 0.23 0.22 0.22 0.20 0.19 0.21 0.17 0.14 0.19 0.16 0.15 0.16 0.13 0.14 0.15 0.12 0.11 0.11 0.15 0.16 0.16 0.15 0.17 0.18 0.18 0.10 0.11 0.14 0.16 0.17 0.18 0.19 0.18 0.17 0.18 0.18 0.18 0.18 0.19 0.19 0.19 0.19 0.20
0.61 0.54 0.48 0.46 0.45 0.45 0.44 0.44 0.46 0.46 0.45 0.38 0.30 0.26 0.26 0.25 0.26 0.25 0.25 0.24 0.25 0.24 0.26 0.23 0.20 0.16 0.14 0.14 0.20 0.21 0.25 0.24 0.21 0.21 0.24 0.23 0.23 0.22 0.22 0.23 0.21 0.21 0.22 0.22 0.21 0.21 0.21 0.20 0.19 0.16 0.15 0.19 0.19 0.16 0.13 0.13 0.14 0.14 0.12 0.11 0.12 0.11 0.13 0.15 0.17 0.16 0.14 0.16 0.18 0.16 0.11 0.12 0.14 0.16 0.18 0.19 0.19 0.18 0.18 0.18 0.19 0.19 0.19 0.19 0.20 0.19 0.19 0.20
0.58 0.52 0.50 0.47 0.43 0.44 0.45 0.45 0.48 0.48 0.44 0.39 0.30 0.27 0.25 0.27 0.25 0.25 0.24 0.23 0.23 0.22 0.27 0.19 0.17 0.16 0.13 0.11 0.16 0.23 0.20 0.17 0.18 0.23 0.25 0.25 0.24 0.21 0.23 0.23 0.23 0.21 0.21 0.20 0.22 0.21 0.21 0.19 0.16 0.16 0.16 0.17 0.15 0.13 0.12 0.12 0.12 0.13 0.11 0.10 0.10 0.11 0.12 0.13 0.16 0.17 0.18 0.16 0.17 0.16 0.12 0.13 0.13 0.16 0.18 0.19 0.19 0.18 0.18 0.18 0.19 0.20 0.20 0.20 0.20 0.20 0.20 0.20
0.54 0.51 0.44 0.41 0.44 0.47 0.44 0.45 0.48 0.46 0.42 0.37 0.31 0.28 0.26 0.25 0.26 0.26 0.25 0.23 0.22 0.23 0.20 0.16 0.18 0.18 0.12 0.17 0.20 0.16 0.15 0.19 0.23 0.23 0.24 0.26 0.25 0.24 0.23 0.22 0.21 0.21 0.21 0.20 0.20 0.20 0.20 0.17 0.18 0.17 0.17 0.14 0.14 0.13 0.10 0.10 0.10 0.11 0.12 0.11 0.12 0.10 0.12 0.11 0.15 0.17 0.17 0.16 0.14 0.16 0.14 0.13 0.15 0.17 0.18 0.18 0.19 0.18 0.18 0.18 0.19 0.20 0.20 0.20 0.20 0.20 0.20 0.20
0.57 0.56 0.49 0.48 0.50 0.46 0.44 0.45 0.46 0.43 0.39 0.35 0.30 0.28 0.25 0.27 0.26 0.26 0.24 0.22 0.23 0.22 0.22 0.22 0.20 0.15 0.12 0.16 0.13 0.14 0.19 0.19 0.20 0.22 0.23 0.25 0.26 0.24 0.22 0.20 0.21 0.21 0.20 0.18 0.19 0.16 0.18 0.14 0.17 0.12 0.13 0.13 0.13 0.12 0.09 0.07 0.09 0.09 0.10 0.10 0.11 0.12 0.12 0.12 0.12 0.15 0.16 0.17 0.14 0.15 0.14 0.13 0.15 0.17 0.18 0.18 0.19 0.18 0.18 0.19 0.19 0.20 0.20 0.20 0.20 0.20 0.20 0.19
0.57 0.54 0.52 0.49 0.47 0.46 0.45 0.46 0.43 0.41 0.37 0.33 0.33 0.34 0.30 0.29 0.28 0.22 0.19 0.19 0.16 0.15 0.13 0.15 0.15 0.10 0.11 0.14 0.17 0.18 0.18 0.20 0.22 0.22 0.20 0.21 0.23 0.23 0.23 0.22 0.20 0.17 0.16 0.14 0.15 0.15 0.16 0.14 0.14 0.12 0.10 0.11 0.11 0.12 0.11 0.11 0.12 0.11 0.12 0.11 0.11 0.10 0.11 0.12 0.14 0.17 0.16 0.14 0.14 0.14 0.13 0.13 0.15 0.16 0.17 0.18 0.19 0.18 0.19 0.19 0.20 0.20 0.20 0.20 0.20 0.20 0.19 0.19
0.58 0.52 0.49 0.47 0.47 0.48 0.47 0.51 0.47 0.41 0.37 0.32 0.28 0.25 0.23 0.17 0.17 0.16 0.19 0.18 0.15 0.15 0.17 0.18 0.18 0.17 0.16 0.17 0.16 0.20 0.21 0.21 0.17 0.20 0.21 0.24 0.21 0.20 0.19 0.19 0.17 0.17 0.15 0.12 0.14 0.15 0.16 0.11 0.10 0.10 0.11 0.12 0.13 0.13 0.13 0.13 0.13 0.13 0.13 0.12 0.12 0.12 0.12 0.14 0.15 0.16 0.18 0.15 0.13 0.14 0.14 0.14 0.14 0.16 0.17 0.18 0.19 0.18 0.19 0.19 0.21 0.20 0.20 0.19 0.19 0.19 0.20 0.21
0.56 0.54 0.51 0.49 0.48 0.47 0.49 0.62 0.50 0.41 0.38 0.33 0.28 0.22 0.15 0.17 0.14 0.12 0.15 0.17 0.20 0.19 0.18 0.18 0.18 0.16 0.15 0.18 0.18 0.17 0.14 0.15 0.18 0.18 0.20 0.25 0.21 0.17 0.15 0.16 0.14 0.12 0.13 0.14 0.13 0.16 0.16 0.11 0.10 0.12 0.13 0.13 0.13 0.14 0.14 0.13 0.14 0.13 0.12 0.12 0.12 0.13 0.11 0.14 0.14 0.16 0.18 0.15 0.13 0.15 0.14 0.13 0.15 0.16 0.17 0.18 0.18 0.17 0.19 0.20 0.20 0.20 0.19 0.19 0.20 0.20 0.21 0.22
0.52 0.53 0.50 0.49 0.48 0.46 0.45 0.61 0.53 0.42 0.40 0.35 0.28 0.21 0.21 0.23 0.26 0.23 0.18 0.13 0.17 0.20 0.19 0.18 0.20 0.17 0.20 0.20 0.20 0.19 0.17 0.13 0.14 0.17 0.22 0.23 0.18 0.14 0.15 0.14 0.12 0.11 0.14 0.14 0.14 0.13 0.11 0.10 0.12 0.13 0.14 0.15 0.14 0.14 0.14 0.13 0.13 0.13 0.12 0.12 0.12 0.13 0.14 0.15 0.16 0.17 0.17 0.15 0.13 0.15 0.13 0.13 0.14 0.16 0.18 0.18 0.18 0.19 0.20 0.21 0.21 0.20 0.19 0.20 0.20 0.20 0.21 0.22
0.44 0.47 0.48 0.48 0.46 0.43 0.42 0.48 0.50 0.47 0.39 0.31 0.26 0.25 0.22 0.28 0.34 0.32 0.23 0.17 0.14 0.20 0.19 0.18 0.16 0.17 0.17 0.21 0.21 0.20 0.14 0.12 0.12 0.16 0.18 0.21 0.17 0.15 0.15 0.12 0.12 0.12 0.12 0.13 0.10 0.10 0.09 0.11 0.12 0.15 0.15 0.14 0.13 0.14 0.14 0.14 0.13 0.12 0.12 0.11 0.11 0.13 0.12 0.11 0.14 0.16 0.17 0.15 0.13 0.14 0.13 0.13 0.15 0.17 0.17 0.18 0.19 0.20 0.21 0.22 0.22 0.22 0.20 0.20 0.20 0.21 0.21 0.22
0.40 0.44 0.46 0.44 0.42 0.40 0.41 0.43 0.45 0.42 0.36 0.32 0.27 0.26 0.33 0.39 0.36 0.31 0.21 0.14 0.13 0.17 0.19 0.20 0.18 0.17 0.17 0.16 0.22 0.19 0.14 0.14 0.15 0.14 0.22 0.20 0.15 0.19 0.15 0.14 0.12 0.12 0.11 0.12 0.12 0.11 0.10 0.13 0.15 0.15 0.14 0.13 0.12 0.13 0.13 0.13 0.12 0.13 0.13 0.12 0.12 0.13 0.13 0.13 0.13 0.15 0.16 0.17 0.17 0.14 0.12 0.13 0.14 0.14 0.16 0.18 0.20 0.20 0.21 0.22 0.22 0.22 0.22 0.22 0.23 0.23 0.23 0.23
0.39 0.43 0.45 0.42 0.38 0.40 0.39 0.40 0.33 0.35 0.40 0.33 0.28 0.34 0.38 0.39 0.37 0.32 0.20 0.15 0.15 0.15 0.24 0.20 0.21 0.19 0.20 0.27 0.25 0.17 0.18 0.17 0.17 0.19 0.21 0.21 0.17 0.17 0.15 0.18 0.14 0.11 0.11 0.13 0.12 0.11 0.11 0.14 0.16 0.14 0.13 0.13 0.13 0.12 0.13 0.13 0.11 0.12 0.13 0.14 0.14 0.14 0.14 0.14 0.15 0.14 0.12 0.12 0.14 0.13 0.09 0.10 0.13 0.15 0.16 0.18 0.19 0.20 0.22 0.22 0.21 0.21 0.22 0.23 0.22 0.23 0.24 0.25
0.36 0.40 0.42 0.40 0.39 0.36 0.37 0.29 0.28 0.34 0.32 0.29 0.32 0.39 0.40 0.37 0.44 0.31 0.17 0.11 0.08 0.14 0.19 0.12 0.22 0.16 0.27 0.20 0.22 0.20 0.19 0.14 0.21 0.22 0.24 0.24 0.25 0.18 0.18 0.14 0.15 0.10 0.12 0.13 0.12 0.12 0.12 0.15 0.15 0.13 0.13 0.13 0.13 0.12 0.14 0.14 0.12 0.11 0.12 0.16 0.15 0.15 0.15 0.15 0.14 0.13 0.10 0.09 0.13 0.15 0.10 0.08 0.13 0.14 0.16 0.18 0.19 0.19 0.21 0.22 0.21 0.21 0.22 0.23 0.23 0.24 0.24 0.25
0.39 0.38 0.39 0.39 0.38 0.38 0.28 0.24 0.31 0.32 0.22 0.25 0.36 0.43 0.40 0.36 0.41 0.31 0.12 0.09 0.07 0.17 0.14 0.20 0.18 0.20 0.27 0.23 0.21 0.21 0.10 0.13 0.21 0.23 0.21 0.23 0.19 0.27 0.14 0.13 0.15 0.16 0.16 0.15 0.11 0.09 0.14 0.13 0.14 0.14 0.13 0.13 0.12 0.12 0.14 0.15 0.13 0.11 0.16 0.16 0.16 0.15 0.15 0.14 0.14 0.13 0.12 0.14 0.14 0.14 0.13 0.10 0.09 0.13 0.17 0.19 0.19 0.19 0.20 0.21 0.21 0.22 0.22 0.23 0.24 0.24 0.25 0.25
0.39 0.38 0.38 0.40 0.40 0.36 0.30 0.31 0.30 0.26 0.23 0.30 0.40 0.40 0.39 0.39 0.36 0.26 0.13 0.06 0.06 0.20 0.15 0.19 0.20 0.31 0.25 0.24 0.23 0.17 0.16 0.20 0.13 0.18 0.22 0.24 0.23 0.19 0.15 0.13 0.12 0.12 0.14 0.13 0.07 0.14 0.13 0.12 0.13 0.12 0.13 0.12 0.12 0.14 0.16 0.16 0.14 0.14 0.16 0.17 0.16 0.16 0.15 0.15 0.14 0.13 0.13 0.12 0.10 0.12 0.14 0.10 0.10 0.14 0.18 0.19 0.17 0.18 0.19 0.20 0.21 0.22 0.23 0.24 0.25 0.26 0.26 0.27
0.41 0.39 0.39 0.37 0.38 0.40 0.38 0.32 0.30 0.26 0.36 0.38 0.40 0.39 0.34 0.37 0.28 0.13 0.10 0.07 0.12 0.17 0.32 0.18 0.32 0.24 0.22 0.23 0.19 0.20 0.17 0.19 0.13 0.18 0.21 0.23 0.23 0.18 0.13 0.14 0.14 0.14 0.15 0.14 0.10 0.12 0.14 0.14 0.14 0.14 0.13 0.12 0.15 0.16 0.17 0.17 0.14 0.17 0.18 0.18 0.18 0.17 0.16 0.15 0.13 0.13 0.13 0.11 0.09 0.11 0.13 0.10 0.10 0.14 0.17 0.18 0.17 0.17 0.19 0.21 0.22 0.22 0.23 0.25 0.26 0.27 0.27 0.28
0.40 0.36 0.36 0.35 0.34 0.34 0.33 0.39 0.35 0.41 0.42 0.41 0.38 0.36 0.35 0.27 0.19 0.12 0.09 0.07 0.24 0.13 0.19 0.19 0.19 0.16 0.19 0.15 0.15 0.17 0.14 0.16 0.17 0.18 0.18 0.16 0.17 0.20 0.18 0.21 0.16 0.14 0.13 0.15 0.13 0.14 0.15 0.20 0.20 0.16 0.14 0.15 0.16 0.17 0.18 0.17 0.18 0.20 0.18 0.16 0.16 0.15 0.14 0.14 0.14 0.13 0.12 0.09 0.10 0.12 0.14 0.13 0.10 0.13 0.16 0.16 0.18 0.19 0.20 0.21 0.22 0.23 0.24 0.25 0.26 0.27 0.28 0.28
0.39 0.34 0.31 0.33 0.27 0.29 0.28 0.24 0.35 0.45 0.42 0.41 0.38 0.34 0.31 0.21 0.14 0.10 0.08 0.09 0.14 0.14 0.19 0.17 0.14 0.20 0.14 0.13 0.11 0.15 0.14 0.14 0.14 0.15 0.13 0.16 0.14 0.16 0.16 0.13 0.19 0.13 0.12 0.12 0.11 0.14 0.15 0.17 0.17 0.18 0.20 0.19 0.19 0.17 0.20 0.20 0.19 0.18 0.15 0.14 0.14 0.12 0.13 0.12 0.12 0.13 0.09 0.08 0.11 0.13 0.13 0.14 0.10 0.13 0.17 0.20 0.21 0.22 0.21 0.21 0.21 0.22 0.23 0.25 0.25 0.26 0.28 0.29
0.39 0.34 0.31 0.30 0.33 0.35 0.23 0.22 0.32 0.42 0.39 0.38 0.31 0.24 0.20 0.14 0.15 0.10 0.10 0.19 0.10 0.12 0.13 0.12 0.15 0.14 0.13 0.14 0.12 0.12 0.12 0.13 0.14 0.14 0.12 0.12 0.11 0.11 0.12 0.09 0.11 0.08 0.08 0.09 0.09 0.14 0.12 0.13 0.17 0.18 0.23 0.19 0.18 0.16 0.17 0.18 0.18 0.16 0.15 0.14 0.11 0.09 0.10 0.08 0.10 0.08 0.09 0.08 0.12 0.14 0.14 0.12 0.13 0.15 0.19 0.20 0.22 0.23 0.23 0.23 0.22 0.23 0.23 0.24 0.25 0.27 0.28 0.29
0.36 0.32 0.31 0.32 0.34 0.30 0.33 0.37 0.40 0.37 0.37 0.32 0.25 0.22 0.18 0.13 0.11 0.13 0.13 0.14 0.10 0.15 0.12 0.17 0.13 0.13 0.13 0.11 0.10 0.12 0.15 0.10 0.14 0.13 0.14 0.13 0.11 0.11 0.13 0.13 0.13 0.10 0.07 0.10 0.09 0.10 0.11 0.15 0.16 0.17 0.19 0.22 0.19 0.13 0.13 0.13 0.15 0.15 0.13 0.13 0.10 0.08 0.07 0.07 0.08 0.09 0.09 0.12 0.14 0.14 0.15 0.12 0.14 0.17 0.20 0.21 0.22 0.24 0.25 0.25 0.24 0.25 0.25 0.26 0.27 0.28 0.28 0.29
0.38 0.33 0.27 0.32 0.33 0.35 0.35 0.36 0.35 0.35 0.28 0.24 0.19 0.15 0.14 0.12 0.12 0.19 0.14 0.13 0.11 0.17 0.17 0.14 0.14 0.13 0.12 0.09 0.10 0.13 0.10 0.12 0.12 0.12 0.13 0.11 0.11 0.09 0.11 0.13 0.14 0.12 0.12 0.11 0.09 0.10 0.08 0.09 0.13 0.15 0.13 0.20 0.18 0.16 0.16 0.14 0.15 0.14 0.16 0.14 0.12 0.11 0.10 0.07 0.08 0.07 0.08 0.10 0.13 0.16 0.13 0.11 0.12 0.15 0.21 0.23 0.24 0.25 0.25 0.25 0.26 0.26 0.27 0.28 0.28 0.28 0.28 0.28
0.41 0.37 0.35 0.32 0.32 0.34 0.35 0.35 0.32 0.31 0.24 0.18 0.14 0.12 0.10 0.10 0.11 0.11 0.11 0.12 0.13 0.15 0.13 0.16 0.12 0.11 0.10 0.11 0.13 0.13 0.12 0.09 0.13 0.12 0.11 0.11 0.09 0.10 0.10 0.11 0.14 0.14 0.14 0.10 0.12 0.11 0.10 0.10 0.13 0.18 0.17 0.19 0.16 0.18 0.18 0.16 0.15 0.16 0.16 0.16 0.13 0.13 0.15 0.10 0.12 0.11 0.11 0.11 0.11 0.12 0.12 0.15 0.14 0.20 0.22 0.24 0.25 0.25 0.25 0.25 0.25 0.26 0.27 0.27 0.27 0.27 0.28 0.28
0.45 0.38 0.37 0.31 0.30 0.32 0.35 0.35 0.32 0.27 0.20 0.14 0.11 0.09 0.09 0.09 0.09 0.12 0.11 0.16 0.16 0.13 0.13 0.14 0.13 0.11 0.10 0.09 0.11 0.11 0.17 0.11 0.12 0.12 0.11 0.11 0.12 0.10 0.13 0.13 0.13 0.16 0.13 0.10 0.12 0.10 0.11 0.09 0.15 0.17 0.18 0.17 0.18 0.19 0.18 0.18 0.11 0.14 0.15 0.12 0.14 0.18 0.16 0.13 0.13 0.14 0.14 0.12 0.10 0.14 0.13 0.15 0.18 0.20 0.21 0.23 0.24 0.24 0.24 0.25 0.25 0.26 0.27 0.27 0.26 0.27 0.28 0.29
0.38 0.38 0.32 0.31 0.30 0.35 0.36 0.35 0.31 0.24 0.19 0.13 0.10 0.08 0.10 0.11 0.13 0.13 0.17 0.15 0.15 0.16 0.13 0.09 0.09 0.08 0.07 0.07 0.09 0.10 0.12 0.13 0.12 0.12 0.09 0.12 0.10 0.13 0.13 0.14 0.17 0.16 0.17 0.14 0.13 0.15 0.10 0.10 0.15 0.14 0.14 0.18 0.20 0.19 0.19 0.19 0.19 0.16 0.13 0.15 0.18 0.19 0.18 0.14 0.10 0.11 0.11 0.10 0.11 0.13 0.12 0.13 0.13 0.13 0.20 0.21 0.21 0.22 0.23 0.24 0.25 0.26 0.26 0.26 0.26 0.27 0.28 0.29
0.38 0.38 0.33 0.31 0.32 0.36 0.37 0.36 0.29 0.22 0.17 0.13 0.10 0.10 0.15 0.12 0.17 0.16 0.20 0.19 0.17 0.15 0.12 0.09 0.09 0.11 0.08 0.08 0.08 0.10 0.12 0.10 0.11 0.12 0.10 0.12 0.09 0.15 0.14 0.13 0.18 0.17 0.18 0.20 0.13 0.13 0.15 0.09 0.13 0.16 0.16 0.17 0.20 0.19 0.17 0.19 0.20 0.16 0.15 0.19 0.14 0.12 0.12 0.14 0.13 0.09 0.10 0.09 0.11 0.12 0.13 0.13 0.14 0.15 0.18 0.19 0.20 0.21 0.22 0.23 0.24 0.25 0.25 0.25 0.26 0.27 0.29 0.30
0.42 0.39 0.30 0.32 0.37 0.36 0.36 0.35 0.27 0.20 0.15 0.11 0.11 0.10 0.15 0.15 0.20 0.19 0.22 0.20 0.18 0.14 0.11 0.11 0.09 0.11 0.11 0.09 0.10 0.12 0.12 0.09 0.12 0.11 0.09 0.11 0.09 0.14 0.14 0.15 0.14 0.18 0.19 0.18 0.15 0.15 0.16 0.10 0.11 0.16 0.15 0.17 0.17 0.17 0.12 0.14 0.18 0.19 0.20 0.17 0.19 0.17 0.14 0.13 0.14 0.14 0.13 0.10 0.10 0.11 0.13 0.11 0.16 0.17 0.19 0.20 0.21 0.21 0.22 0.23 0.24 0.25 0.25 0.26 0.27 0.28 0.29 0.29
0.39 0.34 0.28 0.36 0.38 0.38 0.37 0.33 0.24 0.19 0.15 0.11 0.12 0.12 0.18 0.15 0.18 0.22 0.22 0.20 0.15 0.14 0.12 0.11 0.12 0.10 0.11 0.11 0.12 0.11 0.13 0.12 0.12 0.11 0.11 0.12 0.11 0.15 0.14 0.18 0.15 0.16 0.19 0.19 0.16 0.18 0.14 0.15 0.09 0.13 0.17 0.17 0.12 0.15 0.13 0.14 0.13 0.15 0.15 0.15 0.16 0.16 0.19 0.17 0.17 0.15 0.13 0.12 0.11 0.11 0.10 0.13 0.17 0.20 0.21 0.21 0.21 0.22 0.23 0.23 0.24 0.25 0.26 0.27 0.28 0.29 0.29 0.29
0.41 0.31 0.27 0.38 0.38 0.39 0.36 0.27 0.20 0.16 0.14 0.16 0.17 0.15 0.17 0.15 0.18 0.19 0.21 0.23 0.18 0.20 0.14 0.13 0.12 0.11 0.12 0.11 0.12 0.14 0.12 0.13 0.13 0.11 0.12 0.12 0.12 0.10 0.18 0.17 0.18 0.16 0.19 0.17 0.16 0.17 0.14 0.13 0.10 0.12 0.12 0.12 0.13 0.17 0.17 0.16 0.17 0.16 0.16 0.15 0.16 0.15 0.14 0.13 0.12 0.17 0.16 0.13 0.11 0.11 0.10 0.13 0.19 0.22 0.22 0.22 0.23 0.24 0.25 0.25 0.25 0.26 0.27 0.28 0.29 0.29 0.29 0.28
0.33 0.25 0.23 0.36 0.37 0.36 0.26 0.18 0.17 0.19 0.15 0.13 0.13 0.15 0.15 0.23 0.18 0.18 0.19 0.22 0.20 0.16 0.21 0.16 0.15 0.14 0.14 0.13 0.14 0.14 0.13 0.12 0.13 0.12 0.13 0.11 0.14 0.13 0.16 0.21 0.19 0.19 0.16 0.14 0.15 0.18 0.17 0.15 0.13 0.11 0.12 0.12 0.14 0.17 0.19 0.19 0.19 0.19 0.18 0.17 0.19 0.18 0.17 0.15 0.11 0.13 0.15 0.15 0.16 0.14 0.12 0.12 0.20 0.23 0.23 0.23 0.24 0.25 0.26 0.27 0.26 0.27 0.28 0.29 0.29 0.29 0.29 0.28
0.28 0.22 0.31 0.34 0.35 0.29 0.20 0.14 0.17 0.15 0.14 0.17 0.21 0.20 0.21 0.19 0.16 0.18 0.16 0.18 0.15 0.18 0.16 0.15 0.15 0.14 0.15 0.14 0.14 0.14 0.14 0.12 0.13 0.12 0.13 0.13 0.14 0.16 0.19 0.21 0.22 0.19 0.19 0.16 0.17 0.18 0.19 0.14 0.12 0.12 0.13 0.15 0.17 0.18 0.19 0.20 0.20 0.18 0.18 0.19 0.18 0.16 0.17 0.16 0.16 0.16 0.14 0.14 0.13 0.13 0.11 0.13 0.20 0.23 0.24 0.25 0.26 0.27 0.28 0.28 0.28 0.28 0.29 0.29 0.29 0.28 0.26 0.26
0.27 0.25 0.26 0.32 0.33 0.29 0.18 0.13 0.13 0.14 0.14 0.17 0.17 0.16 0.20 0.18 0.17 0.15 0.15 0.16 0.15 0.15 0.14 0.15 0.16 0.18 0.15 0.18 0.16 0.14 0.16 0.11 0.14 0.13 0.13 0.15 0.14 0.23 0.23 0.22 0.22 0.18 0.17 0.16 0.15 0.21 0.13 0.15 0.13 0.10 0.10 0.12 0.14 0.16 0.17 0.19 0.18 0.17 0.16 0.18 0.19 0.19 0.19 0.18 0.18 0.18 0.14 0.14 0.15 0.13 0.10 0.14 0.20 0.24 0.26 0.26 0.26 0.27 0.28 0.29 0.30 0.29 0.28 0.28 0.27 0.26 0.26 0.25
0.27 0.30 0.27 0.25 0.27 0.25 0.17 0.19 0.15 0.14 0.13 0.13 0.13 0.12 0.13 0.14 0.18 0.17 0.16 0.15 0.19 0.18 0.17 0.15 0.17 0.17 0.16 0.18 0.16 0.17 0.17 0.14 0.12 0.15 0.15 0.15 0.16 0.22 0.23 0.22 0.23 0.19 0.21 0.22 0.19 0.21 0.15 0.14 0.13 0.10 0.09 0.08 0.08 0.09 0.11 0.12 0.15 0.17 0.18 0.18 0.18 0.18 0.18 0.17 0.14 0.15 0.13 0.14 0.16 0.14 0.13 0.17 0.21 0.25 0.25 0.26 0.27 0.27 0.28 0.29 0.30 0.30 0.28 0.27 0.25 0.24 0.25 0.26
0.20 0.14 0.17 0.16 0.20 0.21 0.20 0.22 0.19 0.15 0.13 0.13 0.11 0.12 0.13 0.11 0.16 0.19 0.20 0.18 0.20 0.20 0.19 0.18 0.19 0.19 0.17 0.16 0.15 0.15 0.15 0.18 0.15 0.14 0.15 0.15 0.16 0.19 0.22 0.23 0.22 0.20 0.22 0.22 0.21 0.20 0.16 0.16 0.16 0.14 0.12 0.11 0.13 0.14 0.18 0.18 0.16 0.15 0.16 0.17 0.18 0.19 0.19 0.18 0.17 0.15 0.13 0.15 0.15 0.17 0.18 0.18 0.19 0.23 0.24 0.26 0.27 0.27 0.28 0.29 0.29 0.27 0.26 0.25 0.24 0.24 0.25 0.26
0.18 0.12 0.14 0.12 0.16 0.18 0.16 0.18 0.16 0.15 0.11 0.13 0.09 0.11 0.10 0.12 0.14 0.15 0.22 0.15 0.20 0.19 0.19 0.18 0.17 0.15 0.15 0.15 0.14 0.14 0.15 0.15 0.17 0.16 0.15 0.15 0.17 0.18 0.21 0.22 0.23 0.23 0.23 0.22 0.22 0.20 0.17 0.14 0.15 0.15 0.15 0.15 0.16 0.16 0.17 0.18 0.16 0.16 0.16 0.17 0.19 0.18 0.18 0.17 0.16 0.15 0.19 0.17 0.14 0.19 0.21 0.20 0.20 0.23 0.24 0.26 0.27 0.28 0.29 0.29 0.27 0.25 0.24 0.23 0.23 0.24 0.25 0.26
0.13 0.15 0.16 0.18 0.12 0.11 0.11 0.12 0.15 0.13 0.13 0.13 0.11 0.14 0.13 0.13 0.14 0.12 0.17 0.20 0.20 0.22 0.16 0.17 0.17 0.18 0.17 0.15 0.15 0.13 0.14 0.14 0.15 0.14 0.16 0.16 0.16 0.18 0.18 0.23 0.21 0.24 0.23 0.21 0.22 0.19 0.16 0.13 0.15 0.15 0.14 0.16 0.17 0.17 0.18 0.18 0.18 0.18 0.18 0.18 0.18 0.19 0.19 0.17 0.18 0.20 0.20 0.18 0.16 0.20 0.22 0.21 0.22 0.24 0.26 0.28 0.29 0.29 0.29 0.27 0.25 0.24 0.23 0.22 0.22 0.23 0.24 0.25
0.17 0.15 0.15 0.18 0.11 0.13 0.13 0.13 0.15 0.14 0.13 0.14 0.14 0.15 0.13 0.13 0.13 0.15 0.15 0.16 0.18 0.17 0.19 0.13 0.15 0.16 0.17 0.18 0.16 0.14 0.15 0.12 0.13 0.16 0.15 0.16 0.16 0.16 0.16 0.18 0.22 0.24 0.22 0.20 0.20 0.20 0.17 0.14 0.15 0.16 0.15 0.16 0.17 0.17 0.18 0.17 0.17 0.17 0.18 0.18 0.19 0.19 0.19 0.20 0.21 0.22 0.22 0.21 0.22 0.22 0.22 0.22 0.25 0.26 0.27 0.30 0.31 0.29 0.27 0.25 0.23 0.21 0.20 0.20 0.21 0.23 0.24 0.22
0.12 0.11 0.11 0.17 0.15 0.14 0.15 0.15 0.15 0.15 0.13 0.16 0.13 0.14 0.15 0.14 0.14 0.16 0.17 0.16 0.14 0.16 0.20 0.16 0.16 0.17 0.18 0.18 0.18 0.15 0.16 0.16 0.16 0.14 0.17 0.17 0.17 0.18 0.16 0.17 0.17 0.22 0.22 0.19 0.19 0.20 0.17 0.14 0.18 0.16 0.14 0.15 0.17 0.17 0.17 0.17 0.17 0.16 0.18 0.19 0.20 0.20 0.21 0.22 0.22 0.23 0.23 0.22 0.23 0.23 0.22 0.22 0.27 0.30 0.30 0.30 0.29 0.27 0.24 0.20 0.20 0.19 0.18 0.20 0.22 0.23 0.21 0.21
0.17 0.17 0.17 0.13 0.12 0.15 0.17 0.17 0.16 0.15 0.14 0.15 0.14 0.15 0.15 0.16 0.15 0.17 0.17 0.20 0.17 0.16 0.18 0.16 0.18 0.18 0.19 0.19 0.18 0.17 0.20 0.19 0.19 0.19 0.20 0.19 0.16 0.19 0.17 0.17 0.20 0.17 0.19 0.19 0.19 0.19 0.18 0.16 0.17 0.16 0.13 0.13 0.16 0.16 0.16 0.17 0.17 0.16 0.17 0.19 0.20 0.21 0.20 0.22 0.21 0.24 0.23 0.22 0.23 0.23 0.22 0.22 0.26 0.29 0.28 0.26 0.25 0.22 0.20 0.20 0.18 0.17 0.19 0.23 0.23 0.21 0.20 0.21
0.21 0.23 0.22 0.17 0.13 0.16 0.14 0.18 0.17 0.15 0.13 0.15 0.15 0.16 0.15 0.16 0.18 0.19 0.16 0.21 0.21 0.22 0.20 0.20 0.20 0.19 0.18 0.18 0.17 0.19 0.22 0.23 0.23 0.24 0.24 0.25 0.25 0.24 0.23 0.22 0.22 0.19 0.19 0.19 0.20 0.18 0.18 0.17 0.15 0.15 0.13 0.12 0.15 0.16 0.16 0.16 0.16 0.15 0.17 0.20 0.22 0.23 0.23 0.24 0.25 0.26 0.26 0.25 0.23 0.21 0.21 0.26 0.27 0.27 0.23 0.20 0.19 0.18 0.20 0.19 0.18 0.19 0.22 0.23 0.20 0.20 0.21 0.21
Wind_Speed
8 8 8 8 8 8 7 7 7 7 6 6 6 6 5 5 6 6 6 6 7 6 6 6 6 5 5 5 5 5 5 5 6 7 6 5 4 4 3 2 2 2 2 2 2 2 3 3 4 4 4 5 5 5 5 6 6 6 6 7 7 7 8 8 8 9 10 10 9 9 11 12 12 13 14 15 16 17 18 19 19 20 21 21 21 20 21 21
8 8 7 8 8 8 7 7 6 6 6 6 6 5 4 5 6 6 6 6 6 6 5 5 4 4 3 3 3 3 3 4 5 6 6 4 5 4 3 2 2 2 1 2 2 3 4 4 4 4 4 5 6 6 6 6 7 6 7 7 8 8 8 9 9 9 11 11 9 10 12 13 14 13 14 16 16 17 19 20 20 21 22 23 22 22 21 21
7 7 7 8 8 8 7 7 6 6 6 5 5 5 4 5 6 6 6 5 5 5 5 4 4 3 2 2 3 3 2 2 3 4 5 5 6 5 3 3 3 2 1 2 3 4 4 4 4 4 4 5 6 6 6 7 7 7 8 8 8 8 9 10 10 10 11 11 10 10 12 14 14 14 14 17 18 17 19 20 19 21 23 23 22 21 21 22
7 7 8 8 8 7 7 7 6 6 6 5 5 5 5 6 6 6 6 5 5 4 4 4 3 2 1 1 3 3 2 2 2 3 4 6 6 5 4 3 2 1 1 2 3 4 5 5 5 5 5 5 7 7 7 9 8 8 8 9 8 9 9 9 10 10 11 12 11 10 12 14 15 15 16 17 19 19 19 20 20 22 23 23 22 21 21 22
8 8 8 8 8 8 7 6 5 5 6 5 5 5 5 6 6 6 5 5 5 4 4 3 3 2 0 0 3 4 3 2 1 3 4 6 7 5 4 3 2 2 2 3 4 5 6 6 5 6 6 6 8 7 8 9 8 8 9 9 8 9 10 9 10 11 11 11 11 11 12 14 15 16 18 18 20 19 19 20 22 23 24 23 22 21 22 23
8 8 8 8 8 7 6 5 5 5 6 5 5 5 5 6 6 6 5 5 5 4 4 3 2 2 1 1 2 3 3 2 1 3 5 7 7 6 4 3 3 3 3 4 5 6 6 6 6 6 6 7 8 8 9 9 9 9 9 9 9 11 11 10 11 11 12 12 12 12 14 15 16 18 18 19 21 20 20 21 22 23 23 23 22 22 22 23
8 8 8 8 8 7 6 5 5 5 6 6 5 5 5 6 6 6 5 4 4 4 3 3 3 2 2 1 2 2 2 1 1 4 6 7 7 6 4 3 4 4 4 5 6 6 6 6 5 5 7 7 8 8 9 10 10 10 9 9 11 11 12 11 11 12 13 14 14 14 16 16 18 19 19 20 23 23 22 22 23 23 23 23 23 23 23 24
8 8 8 8 8 7 6 5 5 5 6 6 5 5 6 6 6 6 5 5 4 3 3 3 4 3 3 2 1 1 2 1 2 4 6 7 7 6 4 4 4 4 4 5 6 6 6 6 5 6 7 8 8 8 10 10 9 10 9 10 11 11 12 12 12 13 14 15 16 16 18 18 19 20 20 23 26 25 24 23 23 24 23 23 24 24 24 25
8 8 8 8 8 7 6 5 5 6 6 6 6 6 6 6 6 6 5 5 4 3 3 2 3 4 3 3 3 1 0 1 3 4 5 6 7 6 4 4 5 4 4 6 6 6 6 7 7 7 8 8 8 9 11 11 10 11 10 10 11 12 13 13 13 14 15 16 17 18 19 19 20 21 22 24 24 23 22 23 23 24 24 24 25 25 25 25
8 8 8 8 8 7 6 5 5 6 6 6 6 6 6 6 6 6 5 4 4 4 3 1 1 3 3 3 3 2 1 1 2 4 4 6 6 5 5 5 5 4 5 6 6 7 7 7 6 7 7 7 9 10 12 11 10 10 10 10 12 13 13 14 15 15 16 17 17 18 20 20 19 20 21 21 21 21 21 23 23 23 24 25 25 25 25 26
8 8 8 8 8 7 6 5 5 5 6 7 7 7 6 6 6 6 5 4 4 5 3 2 2 2 2 3 3 2 2 1 2 3 4 5 6 5 6 6 6 5 5 6 6 7 7 6 7 8 8 8 9 10 10 10 10 10 10 11 12 13 14 15 15 16 17 17 17 19 20 20 18 19 21 21 21 22 23 23 23 23 24 25 24 24 25 26
8 9 9 8 8 7 7 6 5 5 6 6 7 7 6 6 6 6 5 5 5 5 4 3 3 3 2 2 2 2 2 2 2 3 4 5 5 5 6 6 6 6 5 6 7 7 7 7 8 8 8 8 9 9 9 9 10 11 12 13 13 14 14 14 15 16 17 17 18 20 20 18 17 20 22 21 21 22 23 24 24 24 24 24 24 24 25 26
8 9 9 9 8 8 7 6 5 5 5 6 7 7 7 6 6 6 6 5 5 5 4 3 3 4 4 2 2 2 2 2 2 3 4 5 4 5 6 6 6 6 6 6 6 7 7 8 7 7 7 8 9 9 8 9 11 11 13 14 14 15 15 14 15 16 17 17 18 20 21 18 18 21 22 21 21 22 23 24 24 24 24 23 23 24 25 26
9 10 10 9 9 8 7 6 5 5 5 6 6 7 6 6 6 6 6 6 6 6 5 4 3 4 4 3 3 3 2 2 2 3 5 5 5 5 5 6 6 6 6 6 6 7 7 7 7 7 8 9 8 8 9 11 12 13 13 14 15 16 16 15 16 16 17 18 18 20 21 20 20 21 21 21 22 22 23 25 25 24 23 23 23 24 25 26
9 10 9 9 8 7 6 6 5 5 5 6 6 6 6 6 6 6 6 6 6 6 5 5 4 4 4 3 4 3 3 3 3 4 5 5 5 5 6 6 6 6 6 7 7 7 8 8 8 8 9 9 8 9 11 12 13 14 14 15 15 17 17 16 16 17 18 18 18 20 22 23 22 21 21 22 22 22 24 25 25 24 24 24 24 25 25 26
9 10 8 8 7 7 6 6 6 6 5 6 6 6 6 7 7 7 6 6 6 6 5 5 4 5 4 4 4 3 3 3 4 5 5 5 6 5 6 7 7 7 7 7 8 8 9 9 9 9 10 10 11 12 13 13 13 14 15 17 17 18 19 18 16 17 19 19 19 20 22 24 23 22 22 22 23 23 25 25 25 25 25 25 25 25 25 26
9 9 7 7 7 6 5 6 6 6 6 6 6 7 6 6 7 7 7 7 6 6 6 6 5 5 4 4 4 4 4 4 5 5 5 6 6 6 7 7 7 8 8 8 9 9 11 10 10 10 11 12 13 14 14 15 15 15 16 18 18 18 20 20 18 18 19 20 21 21 23 26 26 25 25 24 24 24 25 25 25 25 25 25 25 25 25 25
8 8 6 5 5 6 5 5 6 6 6 6 7 7 7 6 6 7 7 8 7 7 7 6 6 6 5 5 5 4 5 5 5 6 6 6 7 7 7 7 8 9 9 9 10 11 11 11 11 11 12 13 13 14 15 16 17 17 18 19 19 19 19 21 20 20 20 21 22 24 25 27 28 28 28 26 24 24 25 25 24 24 24 24 24 24 24 24
8 7 6 4 4 5 5 6 6 6 6 7 7 7 8 7 7 6 6 7 7 8 7 6 6 7 6 5 5 5 5 5 6 6 7 7 8 8 7 8 9 9 10 10 10 11 12 12 12 13 13 13 14 15 16 16 17 18 19 19 20 21 21 21 22 21 22 23 24 25 27 29 30 28 28 26 23 24 25 23 23 23 23 23 23 23 23 23
6 6 5 4 4 5 6 6 6 6 6 7 7 7 7 7 7 7 6 5 6 7 7 7 6 7 6 6 6 6 6 6 6 7 8 8 9 8 9 10 10 10 10 11 12 12 13 13 13 14 14 14 14 15 16 16 17 18 18 19 20 22 22 22 21 21 22 25 26 25 28 30 30 29 27 25 23 23 23 22 22 22 22 22 22 22 22 22
5 5 5 4 4 5 5 6 7 6 7 7 8 7 7 8 8 8 7 6 7 7 7 7 7 7 6 7 7 7 7 7 7 7 8 9 9 9 10 10 10 11 11 12 13 13 13 15 14 14 14 14 14 15 16 16 17 18 19 20 21 21 22 22 21 21 23 25 26 27 29 31 29 28 25 23 23 22 21 21 21 21 21 21 21 22 22 22
5 5 4 4 4 4 5 6 7 6 6 7 7 7 8 8 7 7 8 8 7 8 7 7 7 7 7 7 7 7 8 8 8 9 10 10 10 10 11 11 11 12 12 13 14 14 15 15 14 14 14 14 15 16 17 17 18 19 20 21 22 21 23 23 21 22 23 25 28 28 30 31 29 25 23 22 22 21 21 21 20 20 21 21 21 21 22 22
4 4 4 4 4 4 4 5 6 5 5 6 6 7 7 7 7 7 8 8 8 8 8 7 8 8 8 8 7 8 9 9 10 10 11 12 11 11 12 12 12 13 13 14 15 16 16 15 14 14 14 15 16 17 17 18 19 19 20 21 22 22 23 24 23 24 25 26 29 30 30 29 25 21 20 21 22 22 22 21 20 20 21 21 21 22 22 22
4 4 4 4 4 4 5 5 5 5 5 5 6 7 7 7 7 8 8 8 8 8 8 8 8 8 8 8 9 9 9 10 11 11 12 12 11 12 13 12 13 13 14 15 15 17 17 16 15 15 16 17 17 18 18 20 20 20 20 22 23 23 23 25 26 28 28 25 26 29 29 24 20 19 20 21 22 22 21 20 20 20 21 21 21 22 22 22
3 4 4 4 4 5 5 5 5 5 6 6 6 7 7 7 8 8 8 8 9 9 9 9 9 9 9 9 10 10 10 11 11 12 12 12 12 13 13 13 14 15 14 15 16 18 17 16 16 16 17 18 19 19 20 21 22 21 20 22 22 23 25 26 28 30 29 24 24 27 27 21 19 22 22 21 23 21 18 19 20 20 20 20 21 22 21 22
3 4 4 5 4 4 5 5 5 6 6 6 7 7 7 7 8 8 8 9 9 9 9 9 9 9 9 10 10 11 11 11 11 12 13 13 13 14 13 14 15 16 15 16 17 18 17 17 18 18 18 19 20 21 20 20 22 22 21 21 22 23 26 27 29 29 27 26 25 25 24 23 23 24 22 23 23 21 18 18 20 20 20 20 20 21 21 22
3 3 4 5 5 5 5 5 5 6 6 7 7 7 7 8 8 8 9 9 9 9 9 9 9 9 10 10 11 11 12 12 12 13 13 14 14 14 15 15 16 17 16 18 19 18 17 17 19 19 19 20 21 22 20 19 22 22 21 22 23 25 27 27 28 27 26 27 26 23 22 24 25 24 23 23 22 20 18 18 20 21 21 20 20 21 22 23
3 4 4 5 5 6 6 6 6 6 6 7 7 8 8 8 8 9 9 8 8 8 8 8 9 9 9 10 10 10 11 12 12 12 13 14 15 15 16 17 17 17 17 19 20 19 18 19 19 19 20 21 21 21 20 19 22 22 21 23 25 25 27 27 27 27 26 26 24 21 22 23 24 23 22 21 19 18 18 19 20 20 21 21 21 21 22 23
4 5 5 6 6 7 7 7 7 7 7 7 7 8 8 8 9 8 8 9 8 8 8 8 9 9 9 10 10 10 11 12 12 13 14 15 15 16 17 17 17 18 18 19 21 20 20 20 20 20 21 21 21 21 20 20 21 22 22 24 24 25 26 26 26 26 24 24 22 21 22 23 25 23 20 18 18 18 19 19 19 20 20 20 20 22 23 25
6 6 6 6 7 8 8 8 8 8 7 7 8 8 8 8 8 8 8 9 9 9 9 9 9 10 11 11 11 11 12 13 14 15 15 15 16 16 17 18 17 18 19 20 20 20 20 20 20 20 21 21 20 20 21 20 21 22 23 25 25 25 25 25 25 24 23 22 21 21 22 23 24 22 19 18 19 19 20 20 19 19 20 20 21 23 25 27
6 7 7 7 7 7 8 8 8 8 8 8 8 8 8 8 8 8 8 9 9 9 10 9 10 10 11 11 12 12 13 14 15 16 16 16 17 16 17 18 18 19 20 19 19 19 19 20 20 20 21 20 20 20 20 21 22 23 24 26 26 25 24 24 23 22 23 23 21 21 23 22 21 20 20 20 20 20 19 20 20 20 21 22 24 26 28 29
7 6 6 6 6 7 7 7 8 8 8 8 8 8 8 8 8 9 9 10 9 9 9 9 11 11 11 12 14 14 15 15 15 15 15 16 17 17 17 18 19 20 20 19 19 20 20 20 20 20 20 20 20 20 20 21 23 24 25 25 26 25 24 24 23 23 24 23 21 22 23 22 21 22 23 23 22 20 18 18 19 20 22 25 27 28 29 30
7 6 6 6 6 6 6 7 7 7 7 7 7 8 7 8 9 9 10 10 9 9 10 11 12 12 13 14 14 14 15 15 15 15 15 16 17 17 17 18 19 20 20 20 21 22 20 19 18 19 19 19 20 21 22 22 23 24 25 24 24 25 25 26 25 25 25 24 22 23 23 22 21 21 23 23 23 20 18 17 19 21 24 26 28 30 31 32
6 6 6 6 6 6 6 6 6 6 6 6 6 7 7 8 9 9 9 10 10 10 11 12 13 13 13 14 14 14 15 14 15 16 17 17 18 18 18 18 19 19 20 21 21 20 20 20 19 19 19 20 21 22 23 23 23 24 23 23 24 23 24 26 26 26 26 25 24 23 22 20 19 21 21 20 20 20 18 17 20 23 25 27 29 30 32 34
7 6 6 7 6 6 5 5 6 6 6 6 6 6 7 8 8 8 9 9 10 11 11 12 13 14 13 13 13 14 15 15 16 17 17 17 18 19 18 18 18 18 19 19 19 19 21 20 19 20 20 21 22 22 23 23 23 23 23 24 24 23 24 26 26 26 26 26 24 22 21 21 21 22 20 17 18 18 17 19 23 27 27 28 30 32 34 35
8 7 7 7 7 6 5 5 6 6 6 6 6 7 7 8 8 8 9 9 10 11 12 12 13 13 13 13 13 14 15 16 17 18 17 17 18 18 17 17 17 18 19 20 20 20 21 20 20 21 22 22 23 22 23 24 23 23 24 24 24 25 25 25 25 24 24 25 24 21 22 23 22 20 17 17 20 20 20 24 27 29 29 30 31 34 36 37
7 7 6 6 6 6 6 6 6 6 6 6 6 7 8 8 8 8 8 9 10 11 12 13 12 13 13 14 14 15 16 17 17 18 18 18 18 17 17 17 18 19 20 20 20 20 22 23 22 22 22 21 22 23 23 24 25 24 24 24 24 25 24 23 24 24 23 25 24 21 23 24 21 19 18 20 23 23 25 28 29 30 32 33 34 36 38 39
7 6 6 6 6 6 6 6 6 6 6 6 7 8 8 7 8 8 9 10 11 11 12 12 13 13 13 14 15 15 16 17 17 18 18 18 17 16 17 18 19 19 19 20 21 20 22 24 22 21 22 21 22 24 24 23 24 25 24 24 24 24 23 22 23 24 25 25 24 21 22 23 21 19 20 23 24 26 28 30 30 32 35 36 37 38 40 41
6 6 7 6 5 5 6 6 6 6 6 7 8 8 8 8 8 9 9 10 11 11 12 12 13 13 14 15 16 16 16 17 17 18 18 17 17 17 18 19 18 18 19 20 21 21 22 23 22 21 22 23 23 24 24 23 23 24 24 23 23 23 24 23 23 23 24 25 25 23 21 21 20 19 22 25 26 28 31 31 31 34 37 39 40 41 43 44
5 6 7 7 6 6 6 6 6 6 6 7 8 7 8 8 8 9 10 10 11 11 12 12 13 14 15 15 16 16 16 17 17 18 18 18 19 18 18 18 19 19 20 21 21 22 22 22 23 23 23 24 24 23 24 24 23 23 23 23 23 23 23 24 23 22 22 24 24 23 23 22 20 21 23 25 27 30 32 33 34 37 39 41 42 44 45 47
4 4 5 6 6 6 6 5 5 6 7 7 7 7 8 8 8 9 10 11 11 12 12 13 13 14 15 15 16 16 17 17 17 18 18 18 18 18 18 19 20 20 20 21 21 22 22 22 24 25 25 25 24 23 24 25 24 24 23 23 23 22 22 23 23 21 21 23 23 24 25 24 23 23 24 25 28 31 33 35 37 39 42 43 45 46 47 48
4 4 4 4 5 5 5 5 6 6 7 7 7 8 8 8 9 9 10 11 11 12 12 13 13 14 15 15 16 16 17 18 17 17 18 18 18 19 19 20 21 21 21 22 22 22 23 23 25 26 26 25 23 22 22 22 22 22 23 22 22 22 22 23 23 22 21 22 23 23 25 26 24 23 24 28 31 33 35 38 40 42 44 46 47 48 49 50
4 4 4 4 5 5 5 6 6 6 7 7 7 8 8 9 9 10 10 11 12 12 13 13 14 15 15 16 16 16 17 18 17 17 18 18 19 19 19 20 21 21 21 22 22 22 22 23 24 26 26 23 21 20 20 20 20 21 21 21 21 22 22 22 23 24 23 23 24 25 25 25 24 24 27 32 34 35 37 39 42 44 46 48 49 50 50 51
3 4 5 5 5 5 5 6 6 6 7 7 8 8 9 9 10 10 11 12 12 12 13 14 14 15 15 15 16 16 17 17 17 17 18 19 19 19 19 20 21 21 22 23 22 22 22 23 23 25 25 22 19 18 18 19 20 21 21 22 22 22 21 22 22 23 24 24 24 26 27 26 26 29 34 36 37 38 39 41 44 47 48 49 51 51 52 53
3 4 5 5 5 5 5 5 6 6 7 8 8 9 9 9 10 11 11 12 12 13 13 14 14 14 14 15 16 16 17 18 18 18 19 19 20 19 20 21 21 22 22 23 23 23 23 22 22 23 23 21 21 21 21 21 22 22 22 21 22 21 21 22 23 23 24 24 23 26 30 32 33 36 37 37 38 40 42 44 46 48 49 51 52 53 54 55
3 4 4 5 5 4 5 5 6 6 7 8 9 9 9 10 10 11 12 12 12 13 13 14 14 14 14 15 16 17 17 17 18 19 20 20 20 20 20 21 22 22 22 22 22 22 22 21 21 21 21 21 23 22 22 23 24 24 23 22 21 21 21 22 23 24 25 26 26 27 32 37 39 38 38 38 40 41 44 46 48 49 51 52 53 54 55 54
3 4 4 5 5 5 5 6 6 7 7 8 9 9 10 11 11 11 12 12 12 13 13 14 14 14 15 15 17 17 17 17 18 19 20 20 21 21 21 21 21 22 22 21 21 20 20 20 20 20 21 22 23 23 22 23 24 24 24 23 21 20 21 21 23 24 25 27 28 29 32 37 39 39 39 40 41 43 45 47 50 52 53 54 55 56 56 54
4 4 5 5 5 5 6 6 7 7 7 8 9 9 10 11 11 11 11 12 12 13 13 14 14 15 15 16 17 17 18 18 18 19 20 20 21 21 21 20 20 21 21 20 20 20 20 20 19 19 20 21 22 24 23 21 22 22 23 24 22 21 21 21 23 25 26 27 31 35 36 38 39 39 39 40 42 44 47 49 52 53 55 56 56 56 55 54
4 4 4 5 5 5 6 7 7 7 7 8 9 9 10 11 11 12 11 12 13 13 13 14 15 15 15 15 17 18 18 19 19 19 19 19 20 21 21 20 19 20 20 19 19 19 19 19 19 19 21 22 22 22 21 20 21 21 21 22 23 22 22 22 24 27 28 29 33 37 39 38 37 37 39 41 44 46 48 51 53 54 56 57 56 55 54 55
4 4 4 4 5 5 6 7 7 7 8 9 9 9 10 10 11 12 12 12 13 13 13 15 15 15 15 16 16 18 18 18 20 20 19 19 20 20 20 19 18 19 19 19 19 19 19 19 19 19 22 21 20 20 21 21 22 21 20 21 23 23 24 24 25 28 30 31 34 36 37 36 35 37 41 43 45 47 50 53 54 55 56 56 54 54 55 57
4 4 4 4 5 6 7 7 7 8 8 9 9 9 10 10 11 12 12 12 13 13 13 14 15 15 15 16 16 18 19 19 20 20 20 20 20 19 19 19 19 18 18 18 19 19 19 20 20 21 23 22 20 21 23 23 22 20 20 22 24 25 26 26 27 28 31 33 35 36 35 35 37 40 43 44 46 50 52 53 55 56 55 53 53 55 57 58
4 5 5 5 6 7 7 7 8 8 9 9 9 10 10 11 11 12 13 13 13 14 14 14 15 15 16 16 17 18 19 20 20 20 20 19 19 19 18 18 18 18 18 17 18 19 20 21 21 21 23 22 22 24 25 22 20 20 20 22 25 26 28 28 28 30 31 33 35 35 35 36 39 42 44 46 49 52 53 54 55 55 52 52 54 57 58 57
Wind_Direction
157 156 155 155 157 160 162 163 158 151 148 145 142 140 139 139 143 143 137 132 130 130 129 128 129 125 118 117 114 108 97 87 79 73 69 47 12 358 351 342 332 342 360 355 354 344 342 343 342 338 336 341 339 335 331 329 321 306 303 304 304 303 301 300 293 298 308 306 297 291 287 290 299 298 297 301 297 296 297 294 291 292 291 291 296 299 301 303
164 166 165 164 163 165 168 170 169 162 159 156 153 152 150 149 151 150 145 139 136 135 134 133 136 137 137 138 136 129 116 96 80 65 51 19 356 356 353 346 340 344 351 350 352 335 333 334 336 335 331 337 337 330 325 326 323 312 308 306 307 309 309 308 304 303 308 308 298 293 291 291 300 301 297 299 298 295 295 294 292 291 290 289 291 293 297 299
170 171 172 172 169 169 172 175 174 169 165 164 162 163 160 158 158 155 151 146 143 141 139 140 139 139 145 167 175 159 139 104 72 44 24 2 353 355 350 346 345 342 344 345 343 340 344 344 338 331 332 341 336 328 328 327 321 315 310 308 311 313 312 309 306 307 309 309 301 297 295 293 300 303 299 299 300 297 294 294 293 290 289 290 290 291 294 296
177 175 175 177 176 175 178 181 179 173 170 168 167 167 165 165 165 162 158 157 157 152 146 146 147 148 152 211 199 189 183 139 60 11 357 355 351 351 344 341 340 333 336 337 340 340 342 345 341 333 335 340 332 325 329 328 320 316 312 314 317 310 311 310 306 309 309 308 304 301 300 296 298 299 298 299 300 299 294 293 294 291 291 293 293 293 294 294
184 179 178 180 182 181 185 191 188 180 176 174 175 175 171 171 172 169 168 170 170 166 163 162 161 166 106 245 195 191 192 186 14 347 345 349 348 346 336 329 328 326 326 321 326 331 331 332 329 329 336 333 325 321 325 325 320 320 317 317 318 309 312 312 306 307 307 308 307 302 301 300 300 298 295 295 298 301 302 299 297 296 296 298 296 295 294 294
189 182 181 182 183 185 189 195 192 186 182 181 185 185 180 177 177 175 175 177 174 176 182 183 180 186 160 78 138 181 194 216 313 337 341 343 345 342 328 320 313 305 310 313 319 324 328 327 319 325 331 326 324 324 323 320 314 315 316 313 313 312 313 312 307 306 307 307 305 303 303 303 302 299 297 292 291 297 303 303 302 301 301 301 298 295 293 293
194 186 183 185 187 191 194 195 191 187 183 185 193 192 185 182 182 178 177 176 172 175 187 198 203 206 202 141 94 138 148 155 318 335 343 343 344 338 324 322 315 302 307 315 322 324 327 329 326 327 325 321 321 323 323 319 315 315 313 311 312 314 313 312 308 307 308 307 307 307 305 303 300 303 305 295 290 293 298 301 302 303 303 301 299 295 293 293
196 190 186 191 196 197 199 199 193 188 187 191 193 188 183 183 182 179 177 173 170 180 198 215 218 215 214 212 190 117 93 44 323 339 345 345 346 341 327 322 319 313 319 322 321 320 320 323 322 317 320 321 317 319 320 317 320 321 314 310 313 316 315 312 309 308 309 309 308 307 305 304 303 307 306 297 294 295 297 299 300 301 301 299 297 295 294 295
195 193 190 194 198 198 200 197 190 187 187 189 187 183 180 179 180 181 181 180 183 194 200 212 219 217 217 214 210 198 32 314 324 339 345 347 347 346 342 332 326 326 329 327 324 319 315 314 313 309 316 320 316 318 318 314 318 320 316 313 314 316 315 311 310 309 309 310 310 308 305 306 307 309 305 298 300 303 300 299 299 299 298 297 296 295 295 296
192 193 191 191 193 195 195 188 182 181 184 187 186 185 183 182 184 185 187 193 201 196 190 195 213 214 217 215 212 215 255 287 326 337 346 350 346 348 354 346 340 342 339 335 334 329 321 317 318 318 322 322 320 320 318 315 316 319 320 319 318 315 314 313 311 311 310 310 312 310 308 308 311 311 306 305 308 307 304 302 302 301 298 296 296 295 295 297
193 188 187 188 189 189 186 180 175 176 183 190 191 191 190 191 194 194 197 204 203 200 203 223 223 203 200 207 201 200 244 268 316 341 347 347 349 353 354 347 341 343 341 339 338 335 333 329 322 319 319 317 321 326 324 319 318 321 320 318 320 317 313 312 312 313 312 312 314 312 308 308 313 309 303 306 308 306 305 304 303 301 299 299 298 297 297 298
187 182 182 185 185 181 178 174 172 175 185 193 196 198 200 202 202 202 207 209 207 210 221 241 233 216 200 188 172 193 242 266 283 334 347 343 350 354 351 348 342 338 335 334 334 334 333 327 323 324 321 314 316 323 325 323 321 323 320 317 318 314 311 312 314 315 313 314 316 314 311 309 308 304 303 307 309 307 306 305 304 301 300 301 300 299 300 300
178 178 179 181 179 176 175 174 177 183 190 194 199 203 205 207 205 205 209 211 213 217 227 244 231 219 217 209 197 216 242 274 277 312 337 334 335 341 345 349 350 347 343 341 338 336 334 329 333 337 328 321 320 320 323 325 323 321 322 320 317 313 314 316 317 316 312 314 317 316 315 314 307 301 305 311 309 307 306 304 304 302 302 302 301 302 301 301
175 174 175 177 177 178 181 183 188 198 202 201 204 206 207 206 204 207 211 212 217 221 229 239 227 217 214 210 218 231 246 267 286 309 325 326 321 325 335 341 345 345 343 347 344 341 342 338 341 341 331 329 326 322 323 325 322 321 321 320 319 319 319 320 318 315 313 316 317 315 314 315 314 308 308 311 308 306 304 303 303 302 302 302 302 303 302 303
173 172 174 179 181 185 192 197 202 209 209 209 208 207 208 207 206 211 214 216 220 224 229 232 229 218 205 209 225 238 253 264 296 312 317 324 319 317 325 328 330 332 334 338 338 338 337 331 332 334 330 327 322 320 321 321 322 322 320 320 322 321 319 320 319 316 315 317 315 314 312 314 317 315 313 311 308 306 304 304 303 302 301 302 303 304 303 304
170 171 175 183 187 193 204 210 213 213 213 214 209 206 209 212 214 218 220 222 224 226 227 224 223 218 212 219 229 243 262 272 295 301 307 320 321 316 317 318 319 323 325 328 327 327 330 330 328 326 323 319 318 320 319 316 319 322 321 320 321 320 319 321 321 318 317 317 314 311 313 314 316 316 314 310 308 307 305 304 302 301 301 303 303 304 303 304
171 172 175 185 193 200 207 212 216 217 219 220 213 211 212 215 221 224 227 229 228 229 227 225 223 223 225 229 233 250 265 277 292 298 302 310 315 316 315 316 317 317 317 320 321 321 324 325 318 318 321 319 319 319 317 317 318 321 320 319 320 318 318 319 319 320 318 316 313 311 310 309 310 311 309 307 306 305 304 302 300 301 303 304 304 303 303 305
174 178 181 189 200 203 205 212 218 222 227 227 222 219 218 220 224 226 229 231 232 231 227 232 231 227 233 235 240 256 264 278 292 297 302 303 307 313 317 319 314 313 313 313 319 322 321 320 314 314 318 317 318 317 316 318 317 318 318 318 320 318 316 316 317 320 319 315 313 311 309 308 309 310 307 307 306 304 302 301 301 303 305 305 304 304 304 306
173 181 188 198 206 207 209 215 221 226 230 228 225 225 225 225 225 225 230 230 229 228 227 234 236 233 240 243 248 259 264 277 289 297 305 304 302 304 310 315 311 313 312 309 317 322 318 317 314 313 315 316 318 318 316 318 317 316 317 317 317 318 316 315 317 321 320 315 313 311 311 311 312 311 309 309 308 305 304 302 301 304 306 305 305 305 306 307
180 188 200 214 219 219 219 219 225 231 232 230 229 229 226 224 226 227 231 229 222 224 227 232 234 235 242 247 255 263 265 273 286 300 307 304 300 298 302 308 308 310 313 310 314 319 315 313 312 313 316 318 318 319 319 319 318 316 316 315 314 315 316 317 318 321 320 316 314 313 313 312 312 311 310 311 312 307 304 302 302 304 306 306 306 306 307 309
191 200 212 224 226 227 227 225 231 237 235 231 229 226 224 225 228 227 228 226 222 226 229 231 236 239 244 251 260 267 268 271 281 297 305 303 299 296 300 306 305 307 312 309 309 313 312 311 314 316 318 319 318 318 318 318 317 315 313 313 313 314 315 318 320 319 319 317 315 316 316 313 312 312 312 313 313 309 306 304 303 305 308 308 307 307 308 310
197 203 212 221 226 230 232 230 232 238 236 228 222 221 224 226 227 228 228 225 224 229 232 235 241 245 248 252 261 269 269 273 280 292 303 302 299 299 301 305 305 306 309 307 306 310 309 310 316 318 317 320 319 316 316 316 314 313 313 312 314 315 315 317 319 319 318 316 316 319 318 315 313 313 314 315 313 310 309 305 303 306 309 308 307 307 309 311
201 205 213 227 236 236 234 231 232 237 234 225 218 217 221 224 226 232 233 228 229 233 237 242 247 251 254 256 266 273 272 275 280 291 302 300 297 299 299 302 304 304 306 307 307 308 309 311 315 314 312 314 316 314 314 314 311 310 312 312 312 317 318 316 319 320 316 315 316 317 316 315 316 315 316 317 313 310 308 303 301 305 307 306 307 308 309 310
206 213 225 237 244 242 238 235 234 233 230 228 224 222 225 229 233 237 237 235 236 237 241 247 249 252 256 261 271 277 275 277 281 289 300 299 294 295 297 301 301 300 304 307 306 303 307 312 312 309 309 310 312 312 310 310 310 308 308 309 311 314 316 314 317 319 316 315 317 317 316 317 320 318 317 317 314 310 307 302 301 303 305 305 306 307 308 309
227 231 240 246 246 244 241 238 237 233 233 235 233 232 233 236 240 242 240 240 241 243 245 249 252 253 257 266 276 278 275 278 283 288 296 298 295 294 296 298 298 300 303 305 304 303 306 310 307 306 308 309 309 309 308 308 309 309 307 308 311 313 314 313 316 318 317 316 320 321 320 319 320 318 315 318 315 310 306 303 303 305 305 305 305 306 308 310
253 251 255 254 250 248 242 240 241 240 242 242 239 239 240 243 247 247 245 245 245 248 251 252 255 258 262 272 281 279 276 279 283 288 293 296 296 295 294 296 299 301 302 302 303 304 307 307 305 306 306 307 307 307 307 306 307 310 311 312 312 312 313 314 317 318 316 316 319 320 317 314 317 317 317 318 315 309 304 303 305 307 306 304 304 307 310 312
267 265 262 258 255 252 246 243 245 247 250 248 246 248 248 249 252 252 251 249 247 250 254 255 257 262 268 276 282 280 280 284 285 287 292 296 296 295 294 296 298 300 301 300 302 304 305 304 303 305 305 304 305 307 306 303 305 310 312 313 312 311 312 314 316 315 313 315 316 317 315 312 315 318 320 318 312 306 304 304 306 307 306 305 306 309 312 313
269 266 263 259 256 252 249 251 251 252 255 253 253 254 252 253 256 256 251 247 249 252 255 258 258 265 274 278 282 284 285 289 288 288 293 296 297 296 294 296 297 299 300 298 299 303 305 301 299 301 303 303 305 309 306 300 305 310 311 312 312 312 312 313 313 312 313 315 314 316 317 314 314 319 321 317 310 306 306 306 308 308 307 307 309 312 314 315
277 270 266 262 256 251 253 258 257 256 258 257 256 255 255 257 258 256 250 246 251 254 255 260 260 268 282 283 283 288 289 290 291 293 295 295 298 298 296 298 298 300 300 297 298 303 305 304 302 301 302 304 307 310 306 302 307 311 311 312 312 312 313 313 312 312 313 312 312 316 319 317 317 321 321 317 313 309 308 309 310 309 307 307 309 313 314 316
287 280 274 267 259 254 256 259 260 259 260 259 256 257 259 260 257 254 251 249 254 258 256 261 265 275 288 287 286 291 291 291 294 295 295 294 298 300 299 299 299 298 299 299 299 303 305 305 304 303 304 307 308 309 308 307 310 310 308 309 310 311 313 312 312 312 311 310 313 317 319 319 321 322 320 317 315 312 309 311 313 311 308 307 309 312 314 314
292 286 279 272 264 260 259 259 260 261 261 259 258 260 261 260 257 251 251 254 258 260 258 262 271 281 290 288 289 295 294 295 298 297 296 297 298 300 299 299 300 299 298 299 300 302 304 303 304 305 306 306 306 306 308 308 309 308 308 310 310 311 312 310 311 311 310 312 316 318 318 318 316 318 319 316 313 310 307 310 314 313 311 309 311 312 313 313
291 289 284 275 266 265 263 260 261 261 261 261 261 263 261 260 258 252 256 262 260 257 261 268 276 284 289 287 289 295 295 295 300 300 299 300 299 300 301 301 302 301 300 302 302 302 302 303 306 306 305 305 304 305 307 307 308 307 309 311 311 312 312 310 311 310 310 313 316 317 319 316 310 311 315 312 309 308 307 310 313 313 310 310 311 312 312 312
286 283 282 276 270 268 265 261 261 260 262 266 266 266 265 261 258 255 259 262 260 262 269 274 278 283 287 289 292 294 292 293 300 300 298 299 299 301 302 302 303 300 300 303 305 304 305 306 307 305 305 307 304 305 308 308 308 308 310 311 311 313 312 310 311 310 310 313 314 315 318 316 313 315 315 311 309 313 315 310 309 310 310 310 311 311 311 312
283 278 272 269 269 267 263 261 262 262 265 271 271 273 274 265 260 259 262 263 265 271 275 278 283 285 287 291 295 294 292 294 300 300 298 299 299 300 302 301 302 301 300 302 304 305 304 306 307 305 307 308 305 307 310 309 309 309 311 310 309 310 308 308 311 311 311 313 312 313 314 314 317 320 319 313 311 315 314 305 306 310 311 310 310 311 312 313
276 274 268 265 265 263 262 265 267 267 268 272 276 279 274 266 262 263 266 269 271 276 278 281 286 288 290 293 295 295 295 297 301 301 299 300 300 301 303 302 301 302 302 302 304 305 302 304 309 308 307 307 306 307 309 309 309 310 310 308 307 308 305 305 308 309 310 312 309 308 310 311 314 317 316 311 312 315 311 307 311 313 311 310 311 313 314 314
265 268 267 266 263 261 264 268 269 268 268 273 280 280 272 269 269 268 270 275 278 281 284 285 288 291 292 294 295 299 299 299 303 303 301 301 301 302 303 304 303 304 304 303 303 305 303 304 308 307 306 308 308 308 309 309 309 308 307 307 308 309 306 304 306 309 308 307 307 308 309 312 316 315 311 310 314 317 315 314 315 314 313 312 313 314 314 315
257 262 265 264 263 264 265 267 269 269 271 275 279 279 276 276 277 274 275 280 282 286 290 292 293 294 294 295 297 301 302 301 303 304 303 303 303 301 302 304 304 304 305 304 302 303 303 303 305 306 307 309 309 308 308 310 309 306 306 308 309 309 308 306 307 309 307 305 307 308 307 312 317 313 311 313 316 318 317 316 315 315 315 314 314 315 315 315
252 260 262 260 264 267 264 265 267 267 273 280 281 281 279 279 281 279 280 284 286 289 291 291 294 296 295 297 299 302 304 304 304 305 304 304 303 303 304 304 304 304 305 304 303 304 304 303 306 307 307 309 308 306 307 310 310 308 307 308 308 306 306 307 308 310 309 307 308 308 308 312 312 310 313 315 316 318 318 316 316 316 316 316 315 316 316 317
248 258 259 256 263 269 266 265 266 268 276 282 283 284 283 282 283 283 283 287 290 291 291 293 296 298 297 298 300 303 303 304 306 306 305 304 304 304 305 305 304 304 305 304 305 305 304 304 306 307 308 309 307 305 306 308 309 308 306 307 308 306 305 306 306 309 309 307 309 309 310 315 315 312 314 315 317 319 318 316 315 316 317 318 317 317 318 318
245 257 255 254 264 272 269 269 270 273 280 283 282 283 284 284 284 285 287 290 292 293 294 295 297 298 299 299 301 303 304 304 305 305 304 304 305 305 306 306 306 305 305 305 305 305 304 303 304 306 307 306 306 307 308 308 307 306 304 305 306 306 306 305 304 305 306 306 309 308 306 314 318 313 312 315 317 317 315 315 315 317 318 319 319 318 319 318
249 258 256 259 271 273 269 273 278 278 279 282 283 282 283 285 286 288 289 291 294 296 297 298 298 299 301 302 303 303 303 304 305 304 303 304 305 306 307 307 307 307 306 306 305 305 304 302 302 305 305 305 308 311 310 309 308 306 305 305 306 306 306 305 304 306 304 303 307 306 305 311 315 311 312 314 314 314 315 316 316 318 319 319 319 319 319 318
251 250 262 278 285 277 268 274 280 279 279 282 284 284 285 287 289 291 292 292 295 299 300 301 301 301 301 303 304 304 304 305 305 305 304 304 305 307 308 307 308 308 307 307 307 307 306 304 303 303 304 308 312 313 311 309 309 309 308 308 308 307 305 303 305 309 306 304 307 306 304 309 312 311 311 312 313 315 316 317 317 318 319 319 319 319 318 318
248 243 265 291 291 279 274 277 278 279 281 284 287 287 288 290 292 294 294 293 297 300 301 301 301 302 303 304 305 305 305 304 304 305 306 305 307 309 309 308 308 307 307 308 308 308 307 306 305 304 306 310 312 311 311 311 310 309 310 309 308 308 308 305 305 308 306 304 305 304 303 308 312 312 312 313 315 316 316 318 318 318 318 319 319 318 318 318
256 253 269 292 292 279 277 278 278 282 286 289 292 292 293 293 294 296 297 296 298 300 301 303 303 304 306 307 306 306 306 306 305 306 308 308 309 311 311 310 308 308 308 308 309 308 306 307 308 308 311 313 312 311 311 312 311 310 310 311 310 311 312 309 307 307 305 302 301 301 303 307 311 313 314 315 315 316 316 318 319 319 319 319 319 319 318 318
267 266 273 290 297 289 282 282 281 286 291 294 296 297 298 297 296 298 300 300 301 301 303 306 306 306 307 307 307 307 306 305 306 310 311 310 309 312 312 311 309 309 309 309 309 308 307 308 308 309 311 313 314 315 314 314 313 311 310 311 311 311 310 309 308 306 305 305 303 300 302 306 311 313 314 315 315 316 317 318 319 319 320 319 319 319 319 319
273 279 284 293 302 300 294 292 292 293 294 295 297 299 300 300 301 302 302 302 303 304 305 307 307 308 308 308 307 307 307 306 308 311 312 310 310 312 312 311 310 310 310 310 310 309 309 310 309 306 306 308 312 314 314 314 312 310 312 313 312 311 311 310 309 305 306 307 303 300 302 306 311 314 315 316 317 317 318 319 320 320 320 320 320 320 319 319
284 287 295 297 301 304 302 301 301 300 299 298 299 301 302 302 305 306 304 305 306 306 307 308 307 307 308 310 309 310 311 311 310 311 311 310 312 313 312 311 312 312 312 312 312 312 311 312 312 310 306 307 311 313 313 313 310 310 312 313 312 313 312 310 307 307 310 309 305 305 305 306 311 316 316 317 318 318 319 320 321 321 320 320 320 320 320 320
297 295 298 298 299 301 302 304 306 305 304 303 303 304 305 305 307 307 307 308 309 307 308 309 308 306 308 312 313 313 314 313 311 312 313 314 314 314 313 313 314 314 314 313 314 315 311 311 315 315 311 310 311 311 312 312 310 310 311 312 314 314 312 310 308 308 310 307 306 310 310 308 312 315 316 317 318 319 320 320 320 320 320 320 320 320 321 321
302 300 301 301 303 303 303 306 307 307 310 310 307 306 306 306 307 309 310 311 311 310 309 310 311 309 310 312 313 313 314 314 314 314 315 315 315 315 315 315 315 316 316 315 316 316 311 312 316 316 313 314 314 314 316 313 310 310 309 313 317 315 311 310 309 310 310 306 306 310 310 310 312 314 315 318 319 319 320 320 320 321 320 320 320 321 321 322
301 302 301 303 309 311 310 311 310 310 312 312 310 309 309 307 307 311 311 309 312 314 311 311 314 316 315 314 311 311 313 315 316 316 317 317 316 315 316 316 317 317 317 316 317 316 313 314 318 317 315 317 318 318 316 312 309 307 307 314 319 316 314 314 313 314 313 310 310 310 310 311 314 315 316 318 319 320 320 320 321 321 320 320 321 322 322 322
306 306 305 308 314 315 314 315 314 313 313 313 312 312 312 310 310 314 314 311 313 316 313 313 318 320 320 317 311 311 315 319 318 318 318 317 316 317 317 317 316 316 316 317 317 317 315 314 317 317 316 316 318 317 315 314 311 307 308 318 321 319 318 317 316 316 315 314 314 314 313 315 317 317 317 318 319 321 321 321 322 321 321 322 323 323 322 322
312 313 312 314 317 317 316 317 317 316 316 316 316 315 315 316 316 317 318 316 317 317 316 317 320 320 319 318 315 316 321 321 319 319 319 317 317 319 318 318 319 318 317 318 318 319 317 315 317 317 315 315 317 318 317 316 312 308 311 319 321 319 319 318 316 316 316 315 316 316 316 316 317 318 318 319 320 321 322 323 323 322 322 323 323 323 323 323